FREGAT DEB, 45971

Orbit data source: Space-Track

FREGAT DEB, 45971 is space debris in LEO originally from a launch on Mon, 18 Jul 2011 UTC launched from the Tyuratam Missile And Space Complex (TTMTR). Debris objects in space refer to the collection of defunct objects orbiting the Earth. Examples of debris include non-operational satellites, rocket bodies, and fragments generated from explosions, collisions, or faulty payload assembly.

Loading next visibility...
FREGAT DEB details
Identifier
45971, 2011-037GC
Orbit
LEO
Last TLE update3 days ago
Origin
Flag of CISVVKO VKS (CIS)
ManufacturerLavochkin
MissionSpacecraft
Bus & MotorUnknown
MassUnknown
Launch date (UTC)
2011-07-18 (13 years ago)
Launch vehicleUnknown
Launch site
Tyuratam Missile And Space Complex (TTMTR)
Object type
Payload
Rocket body
Debris
Shape & HBRUnknown
Radar Cross SectionSmall (<0.1 m²)

Expand to show TLE details & history

TLE from 3 days ago
0 FREGAT DEB
1 45971U 11037GC  24359.39897559  .00062729  00000-0  63996-2 0  9997
2 45971  51.4670  13.1286 1255846 261.7599  83.9306 12.75405674198910
Epoch: 2024-12-24T09:34Z
Definitive object data (Epoch: 2024-12-24T09:34:31.49Z)
Latitude-0.00009°
Longitude136.08968°
Altitude1,379.695 km
Speed7.162 km/s
True Right ascension00h 52m 30s
True Declination0° 00' 00"
Sunlit
Object was in daylight at TLE epoch
Visualization TLE readout
Latitude49.8667°
Longitude-162.00888°
Altitude2,313.484 km
Speed6.349 km/s
Apparent Right ascension07h 07m 25s
Apparent Declination16° 23' 40"
Sunlit
Object is in full shadow
Visualization observer readout
Local Sidereal Time21:36:02
Azimuth39.331° NE
Elevation-23.912°
Doppler factor1
Orbital elements
Apogee altitude2,332.332 km
Perigee altitude388.63 km
Semi-major axis7,738.618 km
Eccentricity0.1255846
Inclination51.467°
RAAN13.1286°
Arg. of periapsis261.7599°
True anomaly98.32892°
Mean anomaly83.9306°
Eccentric anomaly91.12468°
Mean motion3.18822 °/min
BSTAR0.0063996
Orbital period112.92 mins
Loading maneuver chart data...
Loading historical data...
Loading historical data...
Loading historical data...
Loading historical data...
Loading historical data...
Loading historical data...
Loading historical data...

FREGAT DEB Visibility forecast

Observer location: undefined°, undefined

Span
Click to sort rows by Start time (UTC) header in descending order
Start Az.
Max El. time (UTC)
Max El. Az.
Max El.
End time (UTC)
End Az.
20 mins2024-12-27 01:35:55.094Z180.493° SSW2024-12-27 01:44:55.094Z116.776° SE30.472°2024-12-27 01:55:55.094Z61.247° ENE
24 mins2024-12-27 03:32:55.094Z231.706° WSW2024-12-27 03:42:55.094Z355.898° N44.985°2024-12-27 03:56:55.094Z54.241° ENE
24 mins2024-12-27 05:32:55.094Z273.092° WNW2024-12-27 05:43:55.094Z345.873° N39.29°2024-12-27 05:56:55.094Z61.563° ENE
24 mins2024-12-27 07:33:55.094Z297.811° NW2024-12-27 07:45:55.094Z5.536° NNE38.79°2024-12-27 07:57:55.094Z85.068° E
23 mins2024-12-27 09:34:55.094Z306.199° NW2024-12-27 09:47:55.094Z57.242° ENE44.816°2024-12-27 09:57:55.094Z124.376° SE
19 mins2024-12-27 11:35:55.094Z297.115° NW2024-12-27 11:45:55.094Z240.54° WSW32.507°2024-12-27 11:54:55.094Z174.723° S
|